Wind_Speed
19 19 20 20 21 21 20 20 20 20 20 19 18 18 18 18 18 19 17 16 16 16 16 16 16 15 15 16 16 16 15 14 14 13 14 14 14 14 14 14 14 14 13 13 13 13 13 14 14
21 21 22 22 22 21 20 21 21 21 21 20 20 19 19 20 19 19 19 18 18 18 17 17 17 17 17 16 16 16 16 15 15 14 14 15 15 15 14 15 14 14 14 14 14 14 14 14 15
22 22 23 24 23 22 20 22 22 23 23 22 21 21 21 20 20 20 20 20 19 19 19 18 18 18 18 18 18 17 17 17 16 16 16 16 16 16 16 15 15 15 15 15 15 15 15 15 16
23 24 25 25 24 22 22 23 24 25 24 24 23 23 22 22 22 22 22 21 21 21 20 20 20 19 19 19 19 19 19 18 18 18 18 18 17 17 17 17 17 17 17 16 16 16 16 16 16
24 25 26 26 24 23 24 25 25 26 26 25 25 24 24 23 23 24 24 23 23 22 22 22 22 21 21 21 21 21 21 20 20 20 20 19 18 18 19 18 19 18 18 18 18 18 18 17 17
26 27 27 26 24 24 25 26 26 27 27 27 27 26 26 26 26 25 25 25 25 24 24 24 24 23 24 23 23 23 22 23 22 22 22 21 20 20 20 20 20 20 19 20 20 19 19 19 19
27 28 28 27 26 26 26 27 28 28 28 29 29 28 27 27 28 28 27 27 27 27 26 25 25 25 25 25 25 25 25 24 24 24 23 23 22 22 22 22 22 22 21 21 21 21 21 20 20
28 29 29 28 28 27 28 29 29 29 29 30 30 30 29 29 30 30 29 29 29 29 28 27 27 27 27 27 27 26 26 25 25 25 25 24 24 24 23 23 23 23 23 23 23 23 23 22 22
29 31 30 29 29 29 30 31 31 31 31 31 31 32 31 31 32 32 31 31 31 30 30 29 29 29 28 28 28 28 28 28 27 28 27 27 26 26 25 25 25 24 24 24 24 24 24 24 24
31 32 31 30 30 31 32 33 33 33 33 33 33 34 34 34 34 34 34 34 33 33 33 32 31 31 30 30 30 30 30 30 29 29 29 28 28 28 28 27 27 26 26 26 26 26 26 26 26
32 33 31 32 32 33 34 34 35 35 35 35 35 36 36 36 36 36 36 36 36 36 36 35 35 34 33 33 33 32 32 32 31 31 31 31 30 30 30 29 29 29 29 28 28 28 28 28 28
33 33 33 33 34 35 35 35 36 36 37 37 37 38 38 38 38 38 38 38 38 38 38 38 37 37 37 36 36 35 35 35 34 34 34 33 33 32 32 32 31 31 31 31 30 30 30 30 30
34 34 34 34 35 36 37 37 37 38 38 38 39 39 39 40 39 40 40 40 40 40 40 39 39 39 39 39 38 38 38 37 37 36 36 36 35 35 35 34 34 33 33 33 32 32 32 32 32
34 34 35 36 36 37 38 39 40 39 39 40 40 40 40 40 41 42 42 41 41 41 41 41 41 41 41 41 40 40 40 39 39 39 39 39 38 38 37 37 37 36 35 35 35 35 35 34 33
35 36 37 37 37 38 39 40 40 40 41 41 40 40 40 40 41 42 42 42 42 42 41 41 41 41 42 42 42 42 42 42 41 41 41 41 41 40 40 39 39 39 38 38 38 38 37 36 35
36 37 38 38 39 40 41 41 39 41 42 42 41 41 42 42 42 42 42 42 43 42 42 42 42 42 42 42 43 43 43 43 43 42 42 42 43 43 42 41 41 41 41 40 40 40 39 38 38
36 38 38 39 39 40 41 41 41 41 42 42 43 42 42 43 43 43 43 42 42 42 42 42 42 42 42 42 43 43 44 44 43 43 43 43 43 43 44 44 44 43 42 42 42 41 41 40 40
37 38 38 39 40 41 41 42 42 43 43 43 44 44 43 43 44 44 44 43 43 43 42 43 42 42 43 43 44 45 45 44 44 44 44 43 43 44 44 44 45 44 43 43 43 43 42 42 42
37 37 38 38 39 41 41 42 43 44 44 43 44 44 44 44 44 44 44 44 44 43 43 44 44 43 43 44 44 45 45 45 45 45 45 45 45 45 45 45 46 46 45 45 45 44 44 44 44
35 36 37 38 39 40 40 41 42 43 43 42 43 43 43 44 45 44 44 44 44 45 45 45 45 45 45 44 45 44 45 45 46 46 46 46 46 46 46 47 47 47 47 47 47 46 46 46 46
34 35 36 37 38 39 39 40 40 41 41 40 41 42 43 43 44 45 45 44 44 45 46 46 47 46 46 46 46 46 46 47 47 47 47 47 47 47 47 48 48 48 49 49 48 48 47 47 48
33 34 35 36 37 37 37 38 38 38 39 39 39 40 42 43 43 44 45 45 45 45 45 46 46 47 47 47 48 47 47 48 48 48 48 48 48 49 49 49 50 50 50 50 50 50 50 50 50
32 33 33 34 35 36 36 38 38 37 37 37 38 39 41 42 43 43 44 45 45 45 46 46 47 47 48 48 49 49 49 49 49 49 49 49 49 50 50 51 51 52 52 52 52 52 52 52 52
32 32 32 33 33 35 34 36 37 36 36 36 35 36 38 39 40 41 43 44 45 45 46 46 47 48 48 49 49 49 49 49 49 50 50 49 49 49 50 51 52 53 53 53 53 53 53 53 53
31 30 30 31 33 34 33 34 36 34 34 35 35 35 36 37 38 40 41 43 44 45 45 45 46 47 47 47 48 48 49 48 49 49 50 49 48 48 49 50 52 52 53 52 53 53 53 54 54
29 29 29 31 32 33 33 34 35 33 32 33 34 34 35 35 36 38 40 42 43 44 44 44 45 46 46 46 47 48 49 49 49 49 49 50 50 49 49 50 51 51 52 52 53 53 54 54 55
28 28 29 30 31 32 32 33 33 32 32 32 33 33 34 33 34 36 37 39 41 42 44 44 45 45 46 46 47 48 49 50 50 50 50 50 51 51 50 50 51 52 53 54 54 54 54 54 55
27 27 27 28 29 30 30 31 31 31 31 30 31 32 33 33 34 34 36 37 38 40 42 43 43 44 45 46 47 47 49 50 51 51 50 51 51 51 51 51 52 52 52 54 54 55 55 55 55
27 27 27 28 29 30 31 30 29 30 30 30 30 31 31 32 33 34 35 36 37 38 40 42 43 43 44 45 46 46 47 49 50 51 51 50 50 50 51 51 52 52 52 53 54 54 54 54 54
27 26 26 27 28 29 30 29 27 29 30 30 31 31 31 31 33 34 34 35 36 37 38 40 42 43 44 45 45 46 47 48 49 50 51 50 50 50 51 52 52 52 52 52 53 53 53 53 53
Wind_Direction
257 256 255 253 251 250 250 248 246 246 245 245 245 246 245 246 246 248 247 245 245 247 248 247 244 244 244 243 242 241 241 242 241 241 239 240 237 236 237 238 238 237 236 236 233 231 228 228 229
258 257 255 253 252 251 250 249 247 247 247 246 246 246 246 246 246 247 246 245 245 246 247 247 246 244 244 244 243 241 240 241 241 241 241 241 237 235 237 239 239 237 235 236 234 233 232 232 231
258 257 255 254 252 252 251 248 248 247 247 247 247 247 248 248 247 247 247 246 245 245 246 245 246 245 244 244 242 242 242 241 242 243 242 243 240 237 237 238 240 238 236 235 235 235 234 233 233
258 257 256 255 254 253 252 250 248 246 247 247 247 248 249 249 248 247 247 247 246 246 247 247 247 246 246 245 244 244 243 242 243 244 243 244 244 242 240 238 239 239 237 236 236 237 237 235 235
258 258 257 256 255 253 253 252 249 247 248 247 248 248 249 249 249 248 247 246 247 248 248 249 249 248 246 246 247 246 246 246 245 243 242 242 242 242 241 240 239 239 240 239 239 239 239 239 238
258 258 257 256 255 254 253 252 250 249 249 249 249 249 249 250 250 250 250 249 248 248 249 250 250 250 249 248 248 249 249 248 246 244 244 244 243 243 242 242 240 240 241 242 241 241 241 241 241
259 258 258 257 254 252 252 252 250 249 249 249 250 250 250 251 251 251 251 251 251 250 250 251 252 252 252 251 250 250 250 248 247 247 246 246 246 246 246 244 242 242 243 243 243 242 242 242 242
260 260 259 257 254 252 252 252 252 252 251 251 251 251 251 251 252 252 252 252 252 251 251 252 253 252 252 251 251 250 250 248 247 248 248 247 248 248 248 247 245 245 245 245 244 243 243 243 244
261 260 259 259 257 255 254 253 253 252 252 252 252 252 252 251 252 252 252 253 253 253 253 252 253 253 253 253 252 250 250 249 247 247 248 249 249 249 248 249 248 247 247 246 247 245 246 245 245
261 261 261 261 259 257 256 255 255 254 252 252 252 252 252 251 251 252 252 252 253 253 253 254 253 253 253 252 252 251 250 250 249 248 248 248 248 249 249 249 248 249 249 249 249 248 247 247 247
262 262 261 261 259 258 258 257 256 255 253 252 252 252 253 252 251 252 252 252 252 252 252 253 253 252 252 251 250 250 250 250 250 249 249 248 248 248 249 250 250 250 251 251 250 249 249 249 248
263 263 262 262 260 260 259 258 257 256 254 252 252 252 253 253 252 252 252 252 252 252 253 252 252 252 252 251 249 249 248 249 249 249 249 249 249 249 250 251 250 250 251 252 251 250 249 250 250
265 265 264 263 262 262 261 260 259 257 256 255 253 253 253 253 253 253 254 253 253 252 253 253 253 253 253 252 250 249 248 248 249 249 249 250 250 250 251 251 250 250 251 251 250 250 250 250 250
268 267 265 264 263 263 263 262 261 259 257 256 254 253 253 254 253 253 254 254 255 254 253 254 253 252 252 251 251 249 248 248 248 249 250 251 251 252 251 250 250 251 251 251 250 250 251 251 250
270 269 267 265 265 265 265 263 262 261 260 258 256 255 254 254 254 254 255 255 255 255 254 254 253 253 252 251 250 249 249 248 248 249 250 251 251 252 252 251 251 251 252 251 251 251 251 251 251
271 270 269 267 265 265 264 264 263 262 261 260 258 257 255 254 254 254 254 254 254 254 253 253 253 253 252 251 250 249 249 249 249 249 250 251 252 252 252 252 252 252 251 251 251 250 249 249 250
271 271 270 269 267 265 265 265 263 263 262 261 259 257 255 254 254 254 254 254 253 253 252 252 252 251 251 251 250 250 249 249 249 249 249 250 251 252 253 254 254 253 252 251 250 250 250 251 251
274 274 273 272 270 267 266 265 265 265 263 261 259 257 256 254 253 254 253 253 253 252 251 251 251 251 251 251 250 250 250 249 249 250 250 251 251 252 253 254 255 253 252 251 251 251 251 252 252
276 276 275 273 272 270 268 267 266 265 264 261 259 257 256 254 253 253 253 252 251 251 251 251 251 252 252 251 251 250 250 250 250 251 251 252 252 252 253 254 254 253 251 251 252 252 252 253 253
278 277 276 275 274 273 271 269 266 265 264 261 260 258 256 254 254 253 252 251 252 252 251 251 252 252 253 252 252 250 250 250 250 252 252 253 253 254 253 254 253 253 252 253 253 253 254 254 255
279 278 278 278 277 275 272 269 267 266 264 262 261 259 257 256 255 254 253 253 253 252 252 252 252 253 253 252 251 251 251 250 251 252 253 254 254 255 254 254 253 254 254 254 254 254 255 256 256
281 281 280 278 276 275 273 272 269 266 265 264 262 261 259 257 256 255 254 253 253 253 252 251 251 252 252 252 252 252 252 251 251 252 253 254 255 256 255 255 254 254 254 255 254 254 256 256 256
284 282 281 279 276 274 272 271 270 268 267 266 265 263 261 259 257 256 255 254 254 253 253 252 252 252 253 253 253 253 253 252 252 253 254 254 255 256 256 256 255 254 254 255 256 257 258 258 258
285 284 281 279 277 274 273 273 272 271 270 268 268 266 263 260 258 257 255 254 254 254 254 254 254 253 254 254 254 253 253 253 253 254 255 256 256 256 256 256 256 255 255 256 257 259 259 259 260
286 285 283 282 278 277 276 275 274 273 272 270 269 266 264 262 259 258 256 255 254 254 254 254 254 254 254 253 253 253 252 253 253 254 255 256 256 256 256 256 256 256 256 256 257 259 260 260 260
290 286 283 282 281 281 279 277 276 275 272 271 270 268 265 263 261 260 259 257 255 254 253 253 253 253 253 254 254 253 253 253 253 254 255 256 257 258 257 257 258 257 257 258 259 260 261 261 260
292 288 285 283 283 283 281 279 277 274 272 271 270 269 268 266 263 262 262 260 257 254 253 252 252 252 252 253 253 253 253 253 253 254 255 256 257 257 258 258 259 259 259 259 260 260 261 261 261
293 290 286 283 283 285 285 283 281 276 273 272 272 271 270 269 267 266 265 263 260 257 254 252 252 252 253 253 253 253 253 254 254 254 256 256 256 257 257 259 259 259 260 260 261 261 261 261 261
295 291 287 283 281 282 286 286 283 279 276 274 272 271 269 268 267 266 266 265 262 259 256 253 252 252 253 253 253 254 254 254 254 255 255 256 256 257 257 258 259 260 259 259 260 262 262 262 262
295 293 289 285 283 282 283 284 285 280 278 277 275 272 270 268 267 266 266 265 263 261 259 256 255 254 254 253 254 254 255 255 255 256 256 256 257 257 257 258 260 260 259 260 260 261 262 262 262
Height
5805 5805 5806 5806 5807 5808 5809 5810 5811 5812 5813 5813 5814 5815 5815 5816 5818 5820 5819 5818 5818 5819 5819 5819 5819 5819 5820 5820 5821 5822 5823 5824 5825 5825 5826 5827 5828 5829 5830 5830 5831 5832 5832 5833 5833 5834 5835 5836 5837
5800 5801 5802 5802 5802 5803 5806 5806 5807 5808 5809 5809 5810 5811 5811 5812 5813 5813 5814 5814 5815 5815 5815 5815 5816 5816 5817 5817 5818 5819 5820 5821 5822 5823 5823 5824 5825 5826 5827 5828 5828 5829 5830 5830 5831 5832 5832 5833 5835
5796 5796 5797 5797 5797 5800 5802 5802 5803 5803 5804 5805 5805 5806 5807 5808 5808 5809 5809 5810 5811 5811 5812 5812 5812 5813 5814 5814 5815 5816 5817 5818 5819 5820 5820 5821 5822 5823 5824 5825 5825 5826 5827 5828 5828 5829 5830 5831 5832
5791 5791 5791 5792 5793 5795 5796 5797 5797 5798 5799 5800 5801 5802 5803 5804 5804 5804 5805 5806 5807 5807 5808 5808 5809 5809 5810 5811 5812 5813 5813 5814 5815 5816 5817 5818 5819 5819 5820 5821 5822 5823 5824 5825 5826 5826 5827 5828 5829
5786 5786 5786 5786 5788 5790 5791 5791 5792 5793 5794 5795 5796 5797 5798 5798 5799 5799 5800 5801 5802 5803 5803 5804 5805 5805 5806 5807 5808 5809 5809 5810 5811 5812 5813 5814 5815 5816 5817 5817 5818 5819 5820 5821 5822 5823 5824 5825 5826
5780 5780 5780 5781 5783 5785 5785 5785 5786 5787 5788 5789 5790 5791 5792 5793 5793 5794 5795 5796 5797 5798 5798 5799 5800 5801 5802 5803 5803 5804 5805 5806 5807 5808 5809 5810 5810 5811 5812 5813 5814 5815 5816 5817 5819 5820 5821 5822 5823
5775 5774 5774 5776 5777 5779 5779 5779 5780 5781 5782 5783 5784 5785 5786 5787 5788 5789 5789 5790 5791 5792 5793 5794 5795 5796 5797 5798 5798 5799 5800 5801 5802 5803 5804 5805 5806 5807 5808 5809 5810 5811 5812 5813 5814 5816 5817 5818 5819
5768 5768 5768 5769 5770 5772 5773 5773 5774 5775 5776 5776 5777 5779 5780 5781 5781 5782 5783 5784 5786 5786 5787 5788 5789 5790 5791 5792 5793 5794 5795 5796 5797 5798 5799 5800 5801 5802 5803 5804 5805 5806 5807 5808 5810 5811 5812 5813 5815
5761 5762 5761 5763 5764 5766 5766 5766 5767 5768 5769 5770 5770 5772 5773 5774 5774 5776 5777 5778 5779 5780 5781 5782 5783 5784 5785 5786 5787 5788 5789 5790 5791 5792 5793 5794 5795 5796 5797 5799 5800 5801 5802 5803 5805 5806 5807 5808 5810
5753 5753 5756 5757 5757 5758 5758 5759 5760 5761 5761 5762 5763 5764 5765 5766 5767 5768 5770 5771 5772 5773 5774 5775 5776 5777 5778 5780 5781 5782 5783 5783 5785 5786 5787 5788 5789 5790 5791 5793 5794 5795 5796 5798 5799 5800 5802 5803 5804
5745 5746 5748 5748 5748 5749 5749 5750 5751 5752 5753 5754 5755 5755 5756 5757 5758 5760 5761 5762 5763 5765 5766 5767 5768 5770 5771 5772 5773 5775 5776 5777 5778 5779 5780 5781 5783 5784 5785 5786 5788 5789 5790 5792 5793 5794 5796 5797 5798
5738 5739 5739 5739 5739 5740 5740 5741 5742 5742 5744 5744 5745 5746 5747 5748 5749 5750 5752 5753 5754 5756 5757 5759 5760 5761 5763 5764 5765 5767 5768 5769 5770 5771 5773 5774 5775 5776 5778 5779 5781 5782 5783 5785 5786 5788 5789 5790 5792
5729 5730 5730 5730 5730 5730 5730 5731 5732 5733 5734 5734 5735 5736 5737 5738 5739 5740 5742 5743 5745 5746 5748 5749 5751 5752 5753 5755 5756 5758 5759 5761 5762 5763 5765 5766 5768 5769 5770 5771 5773 5774 5776 5777 5779 5780 5781 5783 5785
5720 5720 5720 5720 5720 5720 5720 5721 5721 5723 5723 5724 5725 5726 5727 5728 5729 5730 5731 5733 5734 5736 5738 5739 5740 5742 5743 5745 5747 5748 5750 5751 5753 5754 5756 5757 5759 5760 5762 5763 5764 5766 5767 5769 5771 5772 5774 5775 5777
5710 5710 5710 5710 5711 5710 5710 5710 5711 5712 5712 5713 5715 5716 5717 5718 5718 5720 5721 5722 5724 5725 5727 5728 5730 5731 5733 5734 5736 5738 5740 5742 5743 5745 5747 5748 5750 5751 5752 5754 5755 5757 5758 5760 5761 5763 5765 5767 5769
5700 5699 5699 5701 5700 5700 5700 5700 5702 5700 5701 5702 5703 5704 5705 5706 5707 5708 5709 5711 5712 5714 5716 5718 5719 5721 5722 5724 5725 5727 5729 5731 5733 5735 5737 5738 5740 5741 5742 5744 5745 5746 5748 5749 5751 5753 5756 5758 5760
5690 5689 5689 5690 5689 5689 5688 5689 5690 5688 5689 5690 5691 5692 5693 5694 5696 5697 5698 5699 5701 5703 5705 5706 5708 5710 5711 5713 5715 5716 5718 5721 5723 5725 5727 5728 5729 5731 5732 5733 5734 5735 5737 5739 5741 5743 5746 5748 5751
5680 5679 5679 5678 5678 5677 5676 5677 5677 5677 5677 5678 5678 5680 5681 5682 5684 5685 5686 5688 5690 5691 5693 5695 5697 5699 5700 5702 5703 5705 5707 5710 5712 5714 5716 5717 5719 5720 5721 5722 5723 5725 5727 5729 5731 5733 5736 5738 5741
5670 5669 5667 5667 5666 5665 5664 5664 5664 5664 5664 5665 5665 5667 5669 5670 5672 5673 5675 5676 5678 5680 5682 5684 5686 5688 5689 5691 5692 5694 5697 5699 5702 5703 5705 5706 5708 5709 5710 5711 5712 5714 5716 5718 5720 5722 5725 5727 5730
5660 5658 5657 5657 5655 5653 5652 5652 5651 5651 5651 5652 5653 5654 5656 5658 5660 5661 5663 5665 5667 5669 5670 5672 5674 5676 5678 5680 5681 5683 5685 5688 5690 5692 5694 5695 5697 5698 5699 5700 5701 5703 5705 5707 5709 5711 5713 5716 5718
5650 5648 5647 5645 5644 5642 5641 5640 5640 5640 5640 5640 5641 5642 5644 5645 5647 5649 5651 5653 5655 5657 5658 5660 5663 5664 5666 5668 5670 5672 5674 5676 5678 5680 5682 5684 5685 5686 5687 5688 5690 5692 5694 5696 5698 5700 5702 5704 5706
5640 5639 5637 5634 5633 5631 5630 5628 5628 5628 5628 5629 5630 5631 5632 5633 5635 5637 5639 5641 5643 5644 5646 5648 5650 5652 5654 5655 5657 5659 5662 5664 5666 5668 5670 5672 5673 5674 5675 5676 5678 5680 5682 5684 5685 5687 5689 5691 5693
5631 5629 5627 5625 5622 5621 5620 5618 5617 5618 5618 5619 5619 5619 5620 5621 5622 5624 5626 5628 5630 5632 5634 5636 5638 5640 5641 5643 5645 5647 5649 5652 5654 5656 5657 5659 5660 5662 5663 5664 5665 5667 5669 5671 5673 5675 5676 5678 5680
5622 5620 5618 5615 5613 5611 5611 5609 5607 5608 5608 5608 5608 5608 5608 5609 5610 5611 5613 5615 5617 5619 5621 5623 5625 5627 5629 5630 5632 5634 5637 5639 5641 5643 5645 5646 5648 5649 5650 5651 5653 5654 5656 5658 5660 5661 5663 5665 5666
5612 5611 5608 5605 5602 5602 5602 5599 5598 5598 5598 5597 5597 5597 5597 5597 5598 5599 5600 5602 5604 5606 5608 5610 5612 5614 5616 5617 5619 5621 5624 5626 5628 5630 5632 5634 5635 5636 5638 5639 5640 5641 5643 5644 5646 5648 5649 5651 5652
5603 5601 5600 5597 5595 5594 5592 5589 5590 5588 5587 5587 5587 5587 5586 5587 5587 5588 5589 5590 5591 5593 5595 5597 5599 5601 5603 5605 5606 5608 5611 5613 5615 5617 5619 5620 5622 5623 5625 5626 5627 5628 5629 5631 5632 5634 5636 5637 5639
5595 5592 5591 5589 5585 5584 5581 5580 5580 5579 5578 5578 5577 5577 5576 5576 5577 5577 5577 5578 5579 5580 5582 5584 5586 5588 5590 5592 5594 5595 5597 5599 5601 5603 5605 5606 5608 5609 5611 5612 5613 5614 5615 5617 5618 5620 5621 5623 5624
5587 5584 5582 5579 5576 5574 5572 5571 5571 5570 5569 5568 5567 5567 5566 5566 5566 5566 5566 5566 5567 5568 5569 5571 5574 5575 5577 5579 5580 5582 5584 5586 5588 5589 5591 5592 5594 5595 5597 5598 5600 5601 5602 5603 5604 5606 5607 5608 5609
5579 5577 5573 5571 5568 5566 5563 5565 5562 5561 5559 5559 5558 5557 5557 5556 5556 5556 5555 5555 5555 5556 5557 5559 5561 5563 5564 5566 5567 5569 5570 5572 5573 5575 5577 5578 5580 5581 5583 5584 5585 5587 5588 5589 5590 5591 5592 5593 5594
5571 5568 5566 5564 5561 5558 5556 5558 5554 5552 5551 5550 5549 5548 5547 5546 5546 5545 5545 5544 5544 5545 5546 5547 5548 5550 5552 5553 5554 5556 5557 5558 5560 5561 5563 5564 5566 5567 5569 5570 5571 5572 5573 5574 5576 5577 5578 5579 5580